This demonstration page uses our WeatherBlox Daily Observations layout. Learn more.

Left ArrowRight Arrow

39.92423, -83.80882

Hourly Observations for June 17, 2015

Temp ( °F °C ) Dew Point ( °F °C ) Humidity (%) Winds ( mph kmh ) Pressure ( in mb ) Visibility ( mi km ) Precip ( " mm )
6:15 am 06:15 Mostly Cloudy with Mist and Fog 70 21 68 20 94 94 ESE 8 13 30.06 1018 5 8.0467 0 0
6:30 am 06:30 Cloudy with Mist and Fog 70 21 70 21 100 100 E 9 15 30.06 1018 5 8.0467 0 0.0254
6:56 am 06:56 Cloudy with Rain 69 20.5 69 20.5 100 100 ESE 8 13 30.06 1018 1.25 2.011675 0.22 5.588
6:58 am 06:58 Cloudy with Heavy Rain 70 21 70 21 100 100 ESE 10 17 30.06 1018 0.75 1.207005 0.08 2.032
7:03 am 07:03 Cloudy with Heavy Rain 70 21 70 21 100 100 VRB 6 9 30.06 1018 0.5 0.80467 0.3 7.62
7:08 am 07:08 Cloudy with Light Rain 70 21 70 21 100 100 E 10 17 30.06 1018 0.75 1.207005 0.31 7.874
7:12 am 07:12 Cloudy with Light Rain 70 21 70 21 100 100 ESE 9 15 30.06 1018 1.5 2.41401 0.32 8.128
7:16 am 07:16 Cloudy with Light Rain 70 21 70 21 100 100 ESE 9 15 30.06 1018 2 3.21868 0.32 8.128
7:20 am 07:20 Cloudy with Light Rain 70 21 70 21 100 100 ESE 12 19 30.06 1018 1.75 2.816345 0.33 8.382
7:29 am 07:29 Mostly Cloudy with Light Rain 70 21 70 21 100 100 SE 6 9 30.06 1018 2 3.21868 0.33 8.382
7:41 am 07:41 Cloudy with Light Rain 70 21 70 21 100 100 Calm 30.06 1018 3 4.82802 0.33 8.382
7:56 am 07:56 Cloudy with Light Rain 69 20.5 69 20.5 100 100 ESE 7 11 30.07 1018 3 4.82802 0.33 8.382
8:15 am 08:15 Cloudy with Mist and Fog 70 21 70 21 100 100 ESE 7 11 30.06 1018 3 4.82802 0 0.0254
8:27 am 08:27 Cloudy with Light Rain 70 21 70 21 100 100 E 7 11 30.06 1018 2.5 4.02335 0 0.0254
8:48 am 08:48 Cloudy with Mist and Fog 70 21 70 21 100 100 E 7 11 30.09 1019 3 4.82802 0.01 0.254
8:56 am 08:56 Cloudy with Light Rain 70 21.1 70 21.1 100 100 E 8 13 30.09 1019 3 4.82802 0.01 0.254
9:00 am 09:00 Cloudy with Light Rain 70 21 70 21 100 100 E 8 13 30.09 1019 2.5 4.02335 0 0.0254
9:56 am 09:56 Cloudy with Mist and Fog 69 20.5 69 20.5 100 100 E 9 15 30.07 1018 3 4.82802 0.03 0.762
10:33 am 10:33 Cloudy with Rain 68 20 68 20 100 100 ENE 14 22 30.06 1018 1.5 2.41401 0.04 1.016
10:36 am 10:36 Cloudy with Heavy Rain 66 19 66 19 100 100 ENE 12 19 30.06 1018 1 1.60934 0.06 1.524
10:44 am 10:44 Cloudy with Light Rain 66 19 66 19 100 100 E 13 20 30.06 1018 1.5 2.41401 0.09 2.286
10:56 am 10:56 Cloudy with Light Rain 66 18.8 66 18.8 100 100 E 12 19 30.08 1019 1.75 2.816345 0.11 2.794
11:05 am 11:05 Cloudy with Light Rain 66 19 66 19 100 100 ENE 14 22 30.06 1018 2.5 4.02335 0 0.0254
11:12 am 11:12 Cloudy with Light Rain 66 19 66 19 100 100 ENE 10 17 30.06 1018 1.25 2.011675 0.04 1.016
11:15 am 11:15 Cloudy with Heavy Rain 66 19 66 19 100 100 E 13 20 30.06 1018 0.75 1.207005 0.09 2.286
11:31 am 11:31 Cloudy with Light Rain 64 18 64 18 100 100 E 13 20 30.09 1019 1 1.60934 0.19 4.826
11:48 am 11:48 Cloudy with Heavy Rain 64 18 64 18 100 100 ENE 12 19 30.09 1019 0.75 1.207005 0.37 9.398
11:56 am 11:56 Cloudy with Heavy Rain 65 18.3 65 18.3 100 100 ENE 13 20 30.08 1019 0.75 1.207005 0.44 11.176
12:02 pm 12:02 Cloudy with Light Rain 64 18 64 18 100 100 E 12 19 30.09 1019 1.25 2.011675 0.01 0.254
12:07 pm 12:07 Cloudy with Light Rain 64 18 64 18 100 100 E 10 17 30.09 1019 2 3.21868 0.01 0.254
12:24 pm 12:24 Cloudy with Mist and Fog 66 19 66 19 100 100 E 9 15 30.06 1018 4 6.43736 0.02 0.508
12:56 pm 12:56 Cloudy with Light Rain 67 19.4 67 19.4 100 100 E 12 19 30.08 1019 1.75 2.816345 0.03 0.762
1:19 pm 13:19 Cloudy with Light Rain 66 19 66 19 100 100 E 7 11 30.06 1018 1.25 2.011675 0.03 0.762
1:24 pm 13:24 Cloudy with Light Rain 66 19 66 19 100 100 E 8 13 30.06 1018 2 3.21868 0.03 0.762
1:31 pm 13:31 Cloudy with Mist and Fog 66 19 66 19 100 100 E 10 17 30.06 1018 5 8.0467 0.03 0.762
1:42 pm 13:42 Cloudy with Mist and Fog 66 19 66 19 100 100 ESE 8 13 30.06 1018 5 8.0467 0.04 1.016
1:56 pm 13:56 Cloudy with Mist and Fog 67 19.4 67 19.4 100 100 ESE 6 9 30.06 1018 3 4.82802 0.04 1.016
2:06 pm 14:06 Cloudy with Mist and Fog 66 19 66 19 100 100 ESE 7 11 30.06 1018 4 6.43736 0 0
2:16 pm 14:16 Cloudy with Mist and Fog 68 20 68 20 100 100 ESE 5 7 30.06 1018 5 8.0467 0 0
2:25 pm 14:25 Cloudy with Mist and Fog 68 20 68 20 100 100 ESE 7 11 30.06 1018 4 6.43736 0 0
2:36 pm 14:36 Cloudy with Mist and Fog 68 20 68 20 100 100 ESE 6 9 30.06 1018 1.75 2.816345 0 0.0254
2:47 pm 14:47 Cloudy with Light Rain 68 20 68 20 100 100 E 6 9 30.06 1018 2 3.21868 0.02 0.508
2:56 pm 14:56 Cloudy with Heavy Rain 68 20 68 20 100 100 ESE 6 9 30.06 1018 0.75 1.207005 0.1 2.54
3:08 pm 15:08 Cloudy with Light Rain 70 21 70 21 100 100 ESE 6 9 30.03 1017 1.25 2.011675 0.05 1.27
3:16 pm 15:16 Cloudy with Light Rain 70 21 70 21 100 100 E 6 9 30.03 1017 1 1.60934 0.08 2.032
3:23 pm 15:23 Cloudy with Light Rain 70 21 70 21 100 100 E 5 7 30.03 1017 1.25 2.011675 0.09 2.286
3:29 pm 15:29 Cloudy with Light Rain 70 21 70 21 100 100 ESE 7 11 30.03 1017 2 3.21868 0.1 2.54
3:35 pm 15:35 Cloudy with Light Rain 70 21 70 21 100 100 ESE 8 13 30.03 1017 3 4.82802 0.11 2.794
3:42 pm 15:42 Mostly Cloudy with Light Rain 70 21 70 21 100 100 ESE 8 13 30.03 1017 4 6.43736 0.11 2.794
3:49 pm 15:49 Mostly Cloudy with Light Rain 70 21 70 21 100 100 ESE 7 11 30.03 1017 5 8.0467 0.11 2.794
3:56 pm 15:56 Mostly Cloudy with Light Rain 70 21.1 70 21.1 100 100 ESE 7 11 30.03 1017 5 8.0467 0.11 2.794
4:44 pm 16:44 Cloudy with Light Rain 70 21 70 21 100 100 ESE 5 7 30.03 1017 2.5 4.02335 0.08 2.032
4:56 pm 16:56 Cloudy with Light Rain 70 21.1 70 21.1 100 100 ESE 3 6 30.03 1017 2.5 4.02335 0.1 2.54
5:07 pm 17:07 Cloudy with Light Rain 72 22 72 22 100 100 E 5 7 30.03 1017 4 6.43736 0.01 0.254
5:32 pm 17:32 Cloudy with Light Rain 72 22 72 22 100 100 SE 5 7 30.03 1017 1.5 2.41401 0.07 1.778
5:38 pm 17:38 Cloudy with Light Rain 72 22 72 22 100 100 SE 3 6 30.03 1017 0.75 1.207005 0.09 2.286
5:42 pm 17:42 Cloudy with Light Rain 72 22 72 22 100 100 SSE 6 9 30.03 1017 1.25 2.011675 0.09 2.286
5:46 pm 17:46 Cloudy with Light Rain 72 22 72 22 100 100 SSE 6 9 30.03 1017 2 3.21868 0.1 2.54
5:56 pm 17:56 Cloudy with Light Rain 71 21.6 71 21.6 100 100 SSE 6 9 30.02 1017 3 4.82802 0.1 2.54
6:06 pm 18:06 Mostly Cloudy with Light Rain 72 22 72 22 100 100 SSE 7 11 30 1016 3 4.82802 0.01 0.254
6:36 pm 18:36 Mostly Cloudy with Light Rain 72 22 72 22 100 100 S 7 11 30 1016 1.75 2.816345 0.05 1.27
6:43 pm 18:43 Cloudy with Light Rain 72 22 72 22 100 100 SSW 6 9 30 1016 1.25 2.011675 0.07 1.778
6:46 pm 18:46 Cloudy with Light Rain 72 22 72 22 100 100 SSW 7 11 30 1016 1.5 2.41401 0.07 1.778
6:56 pm 18:56 Cloudy with Rain 71 21.6 71 21.6 100 100 SSW 8 13 30.02 1017 1.25 2.011675 0.12 3.048
7:00 pm 19:00 Cloudy with Rain 72 22 72 22 100 100 SSW 9 15 30 1016 0.75 1.207005 0.01 0.254
7:07 pm 19:07 Cloudy with Rain 72 22 72 22 100 100 SW 9 15 30 1016 1 1.60934 0.05 1.27
7:11 pm 19:11 Cloudy with Rain 72 22 72 22 100 100 SW 9 15 30 1016 1.25 2.011675 0.06 1.524
7:19 pm 19:19 Mostly Cloudy with Light Rain 72 22 72 22 100 100 SW 9 15 30 1016 2 3.21868 0.08 2.032
7:35 pm 19:35 Mostly Cloudy with Light Rain 72 22 72 22 100 100 SW 8 13 30 1016 3 4.82802 0.1 2.54
7:56 pm 19:56 Mostly Cloudy with Mist and Fog 72 22.2 72 22.2 100 100 WSW 7 11 30.02 1017 6 9.65604 0.11 2.794
8:56 pm 20:56 Mostly Cloudy with Light Rain 71 21.6 71 21.6 100 100 W 5 7 30.03 1017 7 11.26538 0 0.0254
9:13 pm 21:13 Mostly Cloudy with Light Rain 72 22 72 22 100 100 WSW 6 9 30.03 1017 3 4.82802 0.02 0.508
9:31 pm 21:31 Cloudy with Light Rain 72 22 72 22 100 100 W 3 6 30.03 1017 5 8.0467 0.03 0.762
9:37 pm 21:37 Mostly Cloudy with Light Rain 72 22 72 22 100 100 Calm 30 1016 6 9.65604 0.03 0.762
9:56 pm 21:56 Mostly Clear with Mist and Fog 71 21.6 71 21.6 100 100 SSW 3 6 30.03 1017 6 9.65604 0.04 1.016
10:56 pm 22:56 Partly Cloudy 71 21.6 71 21.6 100 100 S 5 7 30.04 1017 8 12.87472 0 0.0254
11:56 pm 23:56 Mostly Clear 71 21.6 71 21.6 100 100 S 5 7 30.03 1017 9 14.48406 0 0

Powered by AerisWeather